User: anonymous   Login
Location: Unspecified
(0.0000°N, 0.0000°E)
Time: 16:00:19
(UTC+02:00)
Language:

Cosmos 2263 Rocket - Orbit

View from above orbital plane
View from above orbital plane
View from above satellite
View from above satellite

Ground track
Ground track

The orbit data is extracted from the following two-line orbital elements,

1 22803U 93059B   16241.14618316  .00000113  00000-0  80179-4 0  9999
2 22803  70.9907 146.9333 0015247 115.0303 245.2405 14.16748977186775
Epoch (UTC): 28 August 2016 03:30:30
Eccentricity: 0.0015247
inclination: 70.9907°
perigee height: 825 km
apogee height: 847 km
right ascension of ascending node: 146.9333°
argument of perigee: 115.0303°
revolutions per day: 14.16748977
mean anomaly at epoch: 245.2405°
orbit number at epoch: 18677

The dashed part of the orbit path shows where the satellite is in the earth's shadow,  

DLR